When you browse on this site, cookies collect data to enhance your experience and personalize the content and advertising you see.
Visit our Privacy Policy to learn more. By continuing to use the site, you agree to this use of cookies and data.
  • In United Kingdom
  • List of Countries
  • For 7 days
  • Water Temperature
  • Weather Map
  • Weather Widgets
  • user-avatar
    Login

    Hourly Weather Bearsden

    Today, 27 May, Wednesday

    Time Temperature Precipitation Wind Pressure Humidity
    00:00 +8°C° 0 mm 1 mps 773 mmHg 83%
    01:00 +8°C° 0 mm 1 mps 773 mmHg 83%
    02:00 +8°C° 0 mm 1 mps 773 mmHg 83%
    03:00 +8°C° 0 mm 1 mps 773 mmHg 84%
    04:00 +9°C° 0 mm 1 mps 773 mmHg 82%
    05:00 +10°C° 0 mm 1 mps 773 mmHg 81%
    06:00 +9°C° 0 mm 2 mps 773 mmHg 79%
    07:00 +12°C° 0 mm 1 mps 773 mmHg 74%
    08:00 +13°C° 0 mm 1 mps 773 mmHg 69%
    09:00 +14°C° 0 mm 1 mps 774 mmHg 64%
    10:00 +15°C° 0 mm 1 mps 774 mmHg 60%
    11:00 +18°C° 0 mm 1 mps 773 mmHg 56%
    12:00 +19°C° 0 mm 1 mps 773 mmHg 52%
    13:00 +19°C° 0 mm 1 mps 773 mmHg 53%
    14:00 +18°C° 0 mm 2 mps 773 mmHg 54%
    15:00 +18°C° 0 mm 2 mps 773 mmHg 55%
    16:00 +17°C° 0 mm 2 mps 773 mmHg 59%
    17:00 +16°C° 0 mm 2 mps 772 mmHg 63%
    18:00 +16°C° 0 mm 1 mps 772 mmHg 67%
    19:00 +15°C° 0 mm 1 mps 772 mmHg 68%
    20:00 +14°C° 0 mm 1 mps 772 mmHg 70%
    21:00 +12°C° 0 mm 1 mps 773 mmHg 71%
    22:00 +12°C° 0 mm 1 mps 772 mmHg 72%
    23:00 +12°C° 0 mm 1 mps 772 mmHg 73%

    Tomorrow, 28 May, Thursday

    Time Temperature Precipitation Wind Pressure Humidity
    00:00 +12°C° 0 mm 1 mps 772 mmHg 74%
    01:00 +12°C° 0 mm 1 mps 772 mmHg 75%
    02:00 +12°C° 0 mm 1 mps 771 mmHg 76%
    03:00 +12°C° 0 mm 1 mps 771 mmHg 78%
    04:00 +12°C° 0 mm 1 mps 771 mmHg 79%
    05:00 +13°C° 0 mm 1 mps 771 mmHg 79%
    06:00 +13°C° 0 mm 1 mps 770 mmHg 80%
    07:00 +14°C° 0 mm 1 mps 770 mmHg 77%
    08:00 +16°C° 0 mm 1 mps 770 mmHg 74%
    09:00 +17°C° 0 mm 2 mps 770 mmHg 71%
    10:00 +18°C° 0 mm 2 mps 770 mmHg 69%
    11:00 +19°C° 0 mm 2 mps 770 mmHg 68%
    12:00 +21°C° 0 mm 2 mps 769 mmHg 66%
    13:00 +21°C° 0 mm 2 mps 769 mmHg 65%
    14:00 +21°C° 0 mm 2 mps 769 mmHg 65%
    15:00 +23°C° 0 mm 2 mps 768 mmHg 65%
    16:00 +21°C° 0 mm 2 mps 768 mmHg 67%
    17:00 +21°C° 0 mm 2 mps 768 mmHg 70%
    18:00 +21°C° 0 mm 1 mps 767 mmHg 72%
    19:00 +20°C° 0 mm 1 mps 767 mmHg 77%
    20:00 +18°C° 0 mm 1 mps 767 mmHg 83%
    21:00 +15°C° 0 mm 0 mps 767 mmHg 88%
    22:00 +14°C° 0 mm 0 mps 767 mmHg 88%
    23:00 +14°C° 0 mm 0 mps 767 mmHg 89%

    Day after tomorrow, 29 May, Friday

    Time Temperature Precipitation Wind Pressure Humidity
    00:00 +13°C° 0 mm 0 mps 767 mmHg 89%
    01:00 +13°C° 0 mm 0 mps 767 mmHg 90%
    02:00 +14°C° 0 mm 1 mps 766 mmHg 90%
    03:00 +13°C° 0 mm 1 mps 766 mmHg 90%
    04:00 +14°C° 0 mm 1 mps 766 mmHg 89%
    05:00 +15°C° 0 mm 1 mps 766 mmHg 88%
    06:00 +16°C° 0 mm 1 mps 766 mmHg 87%
    07:00 +18°C° 0 mm 1 mps 765 mmHg 81%
    08:00 +20°C° 0 mm 1 mps 765 mmHg 76%
    09:00 +20°C° 0 mm 2 mps 765 mmHg 71%
    10:00 +21°C° 0 mm 2 mps 765 mmHg 69%
    11:00 +22°C° 0 mm 3 mps 765 mmHg 66%
    12:00 +24°C° 0 mm 3 mps 765 mmHg 63%
    13:00 +24°C° 0 mm 3 mps 764 mmHg 62%
    14:00 +24°C° 0 mm 3 mps 764 mmHg 61%
    15:00 +23°C° 0 mm 4 mps 764 mmHg 60%
    16:00 +22°C° 0 mm 3 mps 764 mmHg 60%
    17:00 +21°C° 0 mm 3 mps 763 mmHg 61%
    18:00 +20°C° 0 mm 2 mps 763 mmHg 61%
    19:00 +19°C° 0 mm 2 mps 763 mmHg 63%
    20:00 +18°C° 0 mm 1 mps 764 mmHg 65%
    21:00 +15°C° 0 mm 1 mps 764 mmHg 67%
    22:00 +15°C° 0 mm 1 mps 764 mmHg 68%
    23:00 +14°C° 0 mm 1 mps 764 mmHg 69%

    30 May, Saturday

    Time Temperature Precipitation Wind Pressure Humidity
    00:00 +14°C° 0 mm 1 mps 764 mmHg 70%
    01:00 +13°C° 0 mm 1 mps 764 mmHg 71%
    02:00 +13°C° 0 mm 1 mps 764 mmHg 73%
    03:00 +13°C° 0 mm 1 mps 764 mmHg 74%
    04:00 +14°C° 0 mm 1 mps 764 mmHg 74%
    05:00 +15°C° 0 mm 1 mps 764 mmHg 74%
    06:00 +16°C° 0 mm 1 mps 764 mmHg 74%
    07:00 +18°C° 0 mm 1 mps 764 mmHg 71%
    08:00 +20°C° 0 mm 1 mps 764 mmHg 68%
    09:00 +22°C° 0 mm 1 mps 764 mmHg 64%
    10:00 +23°C° 0 mm 1 mps 764 mmHg 62%
    11:00 +24°C° 0 mm 1 mps 764 mmHg 59%
    12:00 +25°C° 0 mm 2 mps 764 mmHg 57%
    13:00 +25°C° 0 mm 2 mps 764 mmHg 59%
    14:00 +25°C° 0 mm 2 mps 764 mmHg 61%
    15:00 +24°C° 0 mm 2 mps 763 mmHg 63%
    16:00 +24°C° 0.4 mm 2 mps 763 mmHg 68%
    17:00 +23°C° 0.4 mm 1 mps 763 mmHg 73%
    18:00 +22°C° 0.4 mm 1 mps 763 mmHg 77%
    19:00 +21°C° 0.2 mm 1 mps 763 mmHg 80%
    20:00 +19°C° 0.2 mm 1 mps 763 mmHg 83%
    21:00 +18°C° 0.2 mm 1 mps 763 mmHg 86%
    22:00 +16°C° 0 mm 1 mps 763 mmHg 86%
    23:00 +16°C° 0 mm 1 mps 763 mmHg 86%

    31 May, Sunday

    Time Temperature Precipitation Wind Pressure Humidity
    00:00 +16°C° 0 mm 1 mps 763 mmHg 86%
    01:00 +15°C° 0 mm 1 mps 763 mmHg 88%
    02:00 +15°C° 0 mm 1 mps 763 mmHg 89%
    03:00 +14°C° 0 mm 1 mps 763 mmHg 90%
    04:00 +15°C° 0 mm 1 mps 763 mmHg 90%
    05:00 +15°C° 0 mm 1 mps 763 mmHg 89%
    06:00 +15°C° 0 mm 1 mps 763 mmHg 89%
    07:00 +16°C° 0 mm 1 mps 763 mmHg 85%
    08:00 +18°C° 0 mm 1 mps 763 mmHg 81%
    09:00 +19°C° 0 mm 1 mps 763 mmHg 77%
    10:00 +19°C° 0.2 mm 2 mps 763 mmHg 76%
    11:00 +19°C° 0.2 mm 2 mps 763 mmHg 75%
    12:00 +20°C° 0.2 mm 2 mps 762 mmHg 74%
    13:00 +20°C° 0.4 mm 2 mps 762 mmHg 76%
    14:00 +20°C° 0.4 mm 2 mps 762 mmHg 77%
    15:00 +19°C° 0.4 mm 2 mps 762 mmHg 79%
    16:00 +19°C° 0.4 mm 2 mps 761 mmHg 79%
    17:00 +19°C° 0.4 mm 2 mps 761 mmHg 80%
    18:00 +20°C° 0.4 mm 1 mps 761 mmHg 80%
    19:00 +18°C° 0.1 mm 1 mps 761 mmHg 84%
    20:00 +16°C° 0.1 mm 1 mps 761 mmHg 87%
    21:00 +14°C° 0.1 mm 1 mps 761 mmHg 90%
    22:00 +14°C° 0 mm 1 mps 761 mmHg 91%
    23:00 +13°C° 0 mm 1 mps 761 mmHg 92%

    1 June, Monday

    Time Temperature Precipitation Wind Pressure Humidity
    00:00 +12°C° 0 mm 1 mps 761 mmHg 93%
    01:00 +12°C° 0 mm 1 mps 760 mmHg 93%
    02:00 +12°C° 0 mm 1 mps 760 mmHg 93%
    03:00 +11°C° 0 mm 1 mps 760 mmHg 94%
    04:00 +12°C° 0 mm 1 mps 760 mmHg 93%
    05:00 +13°C° 0 mm 1 mps 760 mmHg 92%
    06:00 +14°C° 0 mm 1 mps 759 mmHg 91%
    07:00 +15°C° 0.1 mm 1 mps 759 mmHg 87%
    08:00 +16°C° 0.1 mm 1 mps 759 mmHg 83%
    09:00 +19°C° 0.1 mm 1 mps 759 mmHg 78%
    10:00 +18°C° 0.5 mm 2 mps 759 mmHg 78%
    11:00 +19°C° 0.5 mm 2 mps 759 mmHg 77%
    12:00 +19°C° 0.5 mm 2 mps 759 mmHg 77%
    13:00 +19°C° 0.5 mm 2 mps 759 mmHg 75%
    14:00 +19°C° 0.5 mm 2 mps 758 mmHg 74%
    15:00 +20°C° 0.5 mm 2 mps 758 mmHg 73%
    16:00 +19°C° 0.5 mm 2 mps 758 mmHg 74%
    17:00 +20°C° 0.5 mm 1 mps 758 mmHg 75%
    18:00 +20°C° 0.5 mm 1 mps 758 mmHg 76%
    19:00 +18°C° 0.3 mm 1 mps 758 mmHg 80%
    20:00 +15°C° 0.3 mm 0 mps 758 mmHg 83%
    21:00 +14°C° 0.3 mm 0 mps 758 mmHg 87%
    22:00 +13°C° 0 mm 0 mps 758 mmHg 88%
    23:00 +13°C° 0 mm 0 mps 758 mmHg 89%
    Show more